QPF
0.04 0.04 0.03 0.02 0.01 0.01 0.01 0.01 0.00 0.01 0.01 0.00 0.01 0.00 0.01 0.01 0.00 0.00 0.00 0.00 0.00 0.00 0.00 0.00 0.00 0.00 0.00 0.00 0.00 0.01 0.01 0.00 0.00 0.00 0.00 0.01 0.02 0.03 0.04 0.05 0.05 0.07 0.06 0.05
0.03 0.03 0.02 0.02 0.01 0.01 0.02 0.01 0.01 0.01 0.01 0.01 0.01 0.01 0.00 0.01 0.00 0.00 0.00 0.00 0.00 0.00 0.00 0.00 0.00 0.00 0.00 0.00 0.00 0.01 0.01 0.00 0.00 0.00 0.01 0.02 0.03 0.02 0.03 0.04 0.04 0.05 0.05 0.04
0.03 0.02 0.02 0.02 0.02 0.01 0.02 0.02 0.01 0.01 0.01 0.01 0.01 0.01 0.01 0.01 0.01 0.00 0.00 0.00 0.00 0.00 0.00 0.01 0.01 0.00 0.00 0.00 0.00 0.01 0.01 0.00 0.00 0.00 0.00 0.02 0.03 0.02 0.02 0.02 0.03 0.04 0.04 0.03
0.02 0.01 0.01 0.01 0.01 0.01 0.01 0.02 0.01 0.01 0.01 0.02 0.01 0.01 0.01 0.01 0.00 0.00 0.01 0.00 0.00 0.00 0.00 0.00 0.01 0.00 0.00 0.01 0.01 0.01 0.01 0.00 0.00 0.00 0.01 0.02 0.03 0.03 0.02 0.03 0.03 0.04 0.04 0.04
0.02 0.01 0.00 0.01 0.01 0.00 0.01 0.01 0.01 0.01 0.01 0.01 0.01 0.00 0.00 0.00 0.00 0.00 0.01 0.01 0.00 0.00 0.00 0.00 0.00 0.01 0.01 0.01 0.01 0.01 0.01 0.01 0.01 0.01 0.01 0.02 0.02 0.02 0.03 0.04 0.06 0.05 0.04 0.03
0.01 0.00 0.00 0.00 0.00 0.00 0.01 0.01 0.01 0.00 0.01 0.01 0.00 0.00 0.00 0.00 0.00 0.00 0.00 0.01 0.01 0.00 0.00 0.01 0.01 0.01 0.02 0.01 0.01 0.01 0.01 0.01 0.01 0.01 0.01 0.02 0.02 0.02 0.04 0.05 0.06 0.05 0.04 0.03
0.01 0.01 0.00 0.00 0.01 0.01 0.01 0.01 0.02 0.01 0.01 0.01 0.00 0.00 0.00 0.00 0.00 0.00 0.00 0.01 0.02 0.01 0.01 0.01 0.01 0.01 0.02 0.02 0.02 0.02 0.01 0.01 0.01 0.01 0.01 0.02 0.03 0.04 0.06 0.08 0.07 0.06 0.06 0.04
0.02 0.01 0.00 0.00 0.01 0.01 0.01 0.01 0.01 0.01 0.00 0.00 0.00 0.00 0.00 0.00 0.00 0.00 0.00 0.02 0.02 0.01 0.01 0.01 0.01 0.01 0.01 0.02 0.02 0.02 0.02 0.02 0.02 0.02 0.02 0.03 0.04 0.05 0.07 0.10 0.07 0.06 0.05 0.04
0.01 0.01 0.00 0.01 0.00 0.00 0.00 0.00 0.01 0.01 0.01 0.01 0.00 0.00 0.01 0.01 0.01 0.01 0.01 0.02 0.02 0.01 0.01 0.01 0.01 0.01 0.01 0.01 0.01 0.02 0.02 0.01 0.01 0.02 0.02 0.03 0.04 0.06 0.06 0.06 0.05 0.05 0.05 0.04
0.01 0.01 0.01 0.01 0.00 0.00 0.00 0.01 0.01 0.01 0.01 0.01 0.01 0.01 0.01 0.01 0.01 0.02 0.03 0.03 0.02 0.01 0.01 0.00 0.00 0.00 0.00 0.00 0.01 0.01 0.01 0.01 0.01 0.01 0.01 0.02 0.03 0.03 0.04 0.04 0.04 0.03 0.03 0.03
0.00 0.01 0.00 0.01 0.01 0.01 0.01 0.01 0.01 0.01 0.01 0.01 0.01 0.01 0.01 0.01 0.01 0.02 0.03 0.02 0.01 0.00 0.00 0.00 0.00 0.01 0.01 0.01 0.01 0.01 0.01 0.01 0.01 0.01 0.01 0.02 0.02 0.02 0.03 0.04 0.03 0.02 0.02 0.03
0.01 0.01 0.00 0.00 0.00 0.00 0.01 0.01 0.01 0.02 0.01 0.01 0.01 0.01 0.01 0.01 0.01 0.02 0.03 0.02 0.01 0.01 0.00 0.01 0.01 0.01 0.01 0.01 0.01 0.01 0.01 0.01 0.01 0.01 0.00 0.01 0.01 0.02 0.03 0.03 0.03 0.02 0.02 0.02
0.01 0.01 0.01 0.00 0.01 0.01 0.01 0.01 0.01 0.01 0.02 0.01 0.01 0.01 0.01 0.01 0.01 0.02 0.03 0.02 0.02 0.01 0.01 0.01 0.02 0.01 0.01 0.01 0.01 0.01 0.01 0.01 0.01 0.01 0.01 0.01 0.01 0.01 0.02 0.03 0.03 0.03 0.03 0.02
0.02 0.01 0.00 0.00 0.00 0.01 0.01 0.00 0.00 0.01 0.02 0.01 0.01 0.01 0.01 0.01 0.01 0.02 0.02 0.02 0.02 0.02 0.01 0.01 0.01 0.01 0.01 0.00 0.00 0.01 0.01 0.01 0.01 0.01 0.01 0.00 0.01 0.01 0.02 0.03 0.03 0.02 0.02 0.02
0.01 0.01 0.00 0.00 0.00 0.00 0.00 0.00 0.00 0.01 0.01 0.01 0.01 0.01 0.01 0.01 0.01 0.01 0.02 0.02 0.02 0.02 0.01 0.01 0.01 0.00 0.00 0.00 0.00 0.00 0.01 0.01 0.01 0.01 0.01 0.01 0.01 0.01 0.02 0.02 0.02 0.02 0.02 0.01
0.01 0.01 0.00 0.00 0.00 0.00 0.00 0.00 0.00 0.00 0.00 0.00 0.01 0.01 0.01 0.00 0.01 0.01 0.01 0.01 0.01 0.01 0.01 0.01 0.01 0.01 0.00 0.00 0.00 0.00 0.01 0.01 0.01 0.02 0.02 0.02 0.01 0.02 0.03 0.03 0.02 0.02 0.02 0.02
0.00 0.00 0.00 0.00 0.00 0.00 0.00 0.00 0.00 0.00 0.00 0.00 0.00 0.00 0.00 0.01 0.01 0.01 0.01 0.01 0.01 0.01 0.01 0.01 0.01 0.01 0.01 0.01 0.01 0.01 0.01 0.01 0.01 0.01 0.02 0.02 0.02 0.02 0.04 0.04 0.03 0.03 0.03 0.04
0.00 0.00 0.00 0.00 0.00 0.00 0.00 0.00 0.00 0.00 0.00 0.00 0.00 0.00 0.00 0.00 0.01 0.01 0.01 0.01 0.01 0.00 0.00 0.01 0.01 0.01 0.01 0.01 0.01 0.01 0.01 0.01 0.01 0.01 0.02 0.02 0.03 0.03 0.04 0.05 0.04 0.04 0.04 0.05
0.00 0.00 0.01 0.01 0.01 0.00 0.00 0.00 0.00 0.00 0.00 0.00 0.00 0.00 0.00 0.00 0.00 0.01 0.01 0.01 0.01 0.01 0.00 0.01 0.01 0.01 0.01 0.01 0.01 0.01 0.01 0.01 0.01 0.01 0.02 0.02 0.03 0.03 0.05 0.06 0.07 0.07 0.07 0.07
0.00 0.00 0.01 0.01 0.01 0.00 0.00 0.00 0.00 0.00 0.00 0.00 0.00 0.00 0.00 0.00 0.00 0.00 0.01 0.01 0.01 0.01 0.01 0.00 0.01 0.00 0.01 0.01 0.01 0.01 0.01 0.01 0.01 0.02 0.02 0.02 0.03 0.03 0.04 0.05 0.06 0.07 0.08 0.08
0.00 0.00 0.01 0.01 0.01 0.00 0.00 0.00 0.00 0.00 0.00 0.00 0.00 0.00 0.00 0.00 0.00 0.00 0.00 0.00 0.01 0.01 0.00 0.00 0.00 0.00 0.00 0.00 0.00 0.01 0.01 0.01 0.02 0.02 0.02 0.02 0.02 0.03 0.03 0.04 0.05 0.06 0.07 0.08
0.00 0.00 0.00 0.00 0.01 0.00 0.00 0.00 0.00 0.00 0.00 0.00 0.00 0.00 0.00 0.00 0.00 0.00 0.00 0.00 0.00 0.00 0.00 0.00 0.00 0.00 0.00 0.00 0.00 0.00 0.00 0.00 0.00 0.01 0.01 0.01 0.01 0.02 0.02 0.03 0.03 0.04 0.04 0.06
0.00 0.00 0.00 0.00 0.00 0.00 0.00 0.00 0.00 0.00 0.00 0.00 0.00 0.00 0.00 0.00 0.00 0.00 0.00 0.00 0.00 0.00 0.00 0.00 0.00 0.00 0.00 0.00 0.00 0.00 0.00 0.00 0.00 0.00 0.00 0.00 0.01 0.01 0.01 0.01 0.02 0.02 0.03 0.03
0.00 0.00 0.00 0.00 0.00 0.00 0.00 0.00 0.00 0.00 0.00 0.00 0.00 0.00 0.00 0.00 0.00 0.00 0.00 0.00 0.00 0.00 0.00 0.00 0.00 0.00 0.00 0.00 0.00 0.00 0.00 0.00 0.00 0.00 0.00 0.00 0.01 0.01 0.01 0.01 0.01 0.02 0.02 0.03
0.00 0.00 0.01 0.01 0.00 0.00 0.00 0.00 0.00 0.00 0.00 0.00 0.00 0.00 0.00 0.00 0.00 0.00 0.00 0.00 0.00 0.00 0.00 0.00 0.00 0.00 0.00 0.00 0.00 0.00 0.00 0.00 0.00 0.00 0.00 0.00 0.00 0.01 0.01 0.01 0.01 0.01 0.02 0.02
0.00 0.00 0.01 0.01 0.00 0.00 0.00 0.00 0.00 0.00 0.00 0.00 0.00 0.00 0.00 0.00 0.00 0.00 0.00 0.00 0.00 0.00 0.00 0.00 0.00 0.00 0.00 0.00 0.00 0.00 0.00 0.00 0.00 0.00 0.00 0.00 0.00 0.00 0.01 0.01 0.01 0.01 0.01 0.01
MSLP
1021.72 1022.38 1022.94 1023.38 1023.69 1023.87 1023.93 1023.90 1023.79 1023.63 1023.41 1023.16 1022.87 1022.55 1022.24 1021.95 1021.71 1021.55 1021.50 1021.56 1021.74 1022.01 1022.35 1022.71 1023.04 1023.31 1023.49 1023.55 1023.49 1023.33 1023.08 1022.75 1022.36 1021.93 1021.46 1020.96 1020.42 1019.85 1019.25 1018.62 1017.98 1017.35 1016.73 1016.13
1022.69 1023.27 1023.74 1024.09 1024.33 1024.46 1024.51 1024.49 1024.40 1024.24 1024.00 1023.69 1023.30 1022.84 1022.36 1021.90 1021.51 1021.24 1021.12 1021.17 1021.37 1021.70 1022.11 1022.54 1022.92 1023.22 1023.40 1023.46 1023.42 1023.28 1023.06 1022.80 1022.50 1022.17 1021.79 1021.36 1020.87 1020.32 1019.71 1019.06 1018.40 1017.74 1017.10 1016.51
1023.41 1023.91 1024.31 1024.60 1024.81 1024.95 1025.05 1025.09 1025.06 1024.93 1024.69 1024.32 1023.81 1023.20 1022.53 1021.87 1021.31 1020.91 1020.70 1020.73 1020.95 1021.33 1021.81 1022.30 1022.74 1023.07 1023.27 1023.35 1023.31 1023.19 1023.02 1022.83 1022.61 1022.37 1022.09 1021.74 1021.31 1020.79 1020.19 1019.54 1018.86 1018.19 1017.56 1016.98
1023.86 1024.27 1024.60 1024.86 1025.09 1025.30 1025.49 1025.64 1025.71 1025.65 1025.42 1025.00 1024.38 1023.60 1022.73 1021.88 1021.13 1020.58 1020.28 1020.27 1020.50 1020.93 1021.47 1022.03 1022.52 1022.90 1023.13 1023.22 1023.19 1023.10 1022.96 1022.82 1022.68 1022.51 1022.31 1022.04 1021.67 1021.19 1020.62 1019.98 1019.31 1018.65 1018.03 1017.47
1024.06 1024.37 1024.64 1024.90 1025.18 1025.48 1025.80 1026.09 1026.29 1026.32 1026.13 1025.66 1024.94 1024.01 1022.95 1021.90 1020.97 1020.28 1019.89 1019.83 1020.07 1020.54 1021.13 1021.76 1022.31 1022.73 1022.99 1023.09 1023.08 1023.00 1022.89 1022.78 1022.69 1022.59 1022.45 1022.23 1021.92 1021.49 1020.96 1020.35 1019.71 1019.07 1018.47 1017.94
1024.08 1024.29 1024.50 1024.77 1025.10 1025.52 1025.98 1026.42 1026.76 1026.89 1026.73 1026.25 1025.44 1024.38 1023.16 1021.93 1020.84 1020.02 1019.54 1019.43 1019.67 1020.16 1020.81 1021.50 1022.10 1022.57 1022.86 1022.98 1022.98 1022.91 1022.82 1022.73 1022.66 1022.60 1022.50 1022.33 1022.07 1021.68 1021.19 1020.63 1020.02 1019.42 1018.85 1018.35
1024.02 1024.13 1024.29 1024.55 1024.94 1025.46 1026.05 1026.63 1027.09 1027.31 1027.19 1026.70 1025.83 1024.66 1023.32 1021.95 1020.73 1019.79 1019.23 1019.08 1019.31 1019.82 1020.51 1021.24 1021.90 1022.41 1022.73 1022.88 1022.90 1022.84 1022.75 1022.67 1022.61 1022.56 1022.48 1022.35 1022.12 1021.78 1021.33 1020.81 1020.25 1019.68 1019.16 1018.68
1023.97 1023.99 1024.10 1024.36 1024.79 1025.38 1026.06 1026.74 1027.28 1027.56 1027.47 1026.97 1026.06 1024.83 1023.39 1021.93 1020.61 1019.60 1018.98 1018.78 1018.99 1019.51 1020.22 1020.98 1021.67 1022.22 1022.58 1022.76 1022.80 1022.75 1022.67 1022.60 1022.54 1022.49 1022.42 1022.30 1022.10 1021.79 1021.38 1020.90 1020.39 1019.87 1019.38 1018.93
1023.99 1023.95 1024.03 1024.27 1024.71 1025.33 1026.05 1026.77 1027.34 1027.65 1027.56 1027.05 1026.12 1024.84 1023.36 1021.85 1020.49 1019.42 1018.76 1018.53 1018.71 1019.21 1019.91 1020.68 1021.40 1021.97 1022.37 1022.59 1022.66 1022.64 1022.58 1022.51 1022.45 1022.41 1022.34 1022.22 1022.03 1021.75 1021.38 1020.94 1020.46 1019.98 1019.52 1019.09
1024.10 1024.04 1024.10 1024.33 1024.75 1025.35 1026.05 1026.75 1027.29 1027.57 1027.46 1026.93 1025.99 1024.71 1023.22 1021.71 1020.34 1019.26 1018.57 1018.31 1018.45 1018.92 1019.59 1020.34 1021.05 1021.64 1022.07 1022.33 1022.44 1022.46 1022.43 1022.38 1022.34 1022.30 1022.23 1022.12 1021.94 1021.67 1021.33 1020.92 1020.48 1020.03 1019.59 1019.17
1024.29 1024.25 1024.31 1024.52 1024.91 1025.44 1026.06 1026.66 1027.12 1027.31 1027.16 1026.60 1025.66 1024.41 1022.97 1021.51 1020.18 1019.12 1018.43 1018.14 1018.23 1018.63 1019.24 1019.95 1020.63 1021.21 1021.66 1021.95 1022.12 1022.19 1022.21 1022.20 1022.18 1022.16 1022.10 1021.99 1021.82 1021.57 1021.24 1020.86 1020.44 1020.01 1019.59 1019.18
1024.53 1024.54 1024.61 1024.80 1025.12 1025.55 1026.04 1026.49 1026.81 1026.88 1026.65 1026.06 1025.14 1023.95 1022.60 1021.23 1019.98 1018.98 1018.31 1018.00 1018.03 1018.36 1018.88 1019.51 1020.13 1020.69 1021.14 1021.47 1021.68 1021.82 1021.90 1021.94 1021.97 1021.97 1021.93 1021.83 1021.67 1021.43 1021.12 1020.76 1020.36 1019.94 1019.53 1019.13
1024.78 1024.86 1024.96 1025.11 1025.34 1025.62 1025.93 1026.18 1026.32 1026.25 1025.92 1025.31 1024.43 1023.33 1022.10 1020.87 1019.74 1018.83 1018.20 1017.88 1017.86 1018.10 1018.52 1019.04 1019.59 1020.10 1020.54 1020.88 1021.15 1021.35 1021.50 1021.61 1021.68 1021.72 1021.71 1021.63 1021.49 1021.26 1020.96 1020.61 1020.23 1019.83 1019.43 1019.03
1025.06 1025.20 1025.30 1025.39 1025.49 1025.59 1025.68 1025.71 1025.63 1025.39 1024.97 1024.33 1023.50 1022.52 1021.45 1020.39 1019.42 1018.63 1018.06 1017.75 1017.69 1017.84 1018.15 1018.56 1019.01 1019.46 1019.87 1020.23 1020.54 1020.80 1021.02 1021.20 1021.34 1021.42 1021.45 1021.39 1021.26 1021.06 1020.78 1020.44 1020.08 1019.69 1019.30 1018.91
1025.38 1025.55 1025.62 1025.61 1025.54 1025.42 1025.26 1025.03 1024.72 1024.31 1023.78 1023.13 1022.37 1021.52 1020.63 1019.77 1018.98 1018.34 1017.86 1017.58 1017.49 1017.56 1017.77 1018.08 1018.43 1018.81 1019.19 1019.55 1019.89 1020.21 1020.49 1020.74 1020.94 1021.07 1021.14 1021.12 1021.01 1020.82 1020.56 1020.25 1019.90 1019.54 1019.16 1018.78
1025.78 1025.91 1025.90 1025.74 1025.47 1025.10 1024.66 1024.16 1023.62 1023.03 1022.40 1021.74 1021.05 1020.34 1019.65 1018.99 1018.41 1017.93 1017.57 1017.34 1017.23 1017.25 1017.38 1017.59 1017.86 1018.18 1018.52 1018.88 1019.25 1019.60 1019.94 1020.25 1020.50 1020.69 1020.80 1020.81 1020.74 1020.57 1020.34 1020.05 1019.73 1019.38 1019.02 1018.65
1026.24 1026.29 1026.14 1025.79 1025.27 1024.63 1023.91 1023.14 1022.36 1021.61 1020.89 1020.22 1019.60 1019.04 1018.53 1018.09 1017.70 1017.39 1017.15 1016.98 1016.90 1016.89 1016.96 1017.10 1017.30 1017.56 1017.88 1018.24 1018.62 1019.02 1019.41 1019.76 1020.06 1020.30 1020.44 1020.49 1020.45 1020.32 1020.11 1019.85 1019.55 1019.23 1018.88 1018.52
1026.75 1026.65 1026.31 1025.74 1024.96 1024.05 1023.05 1022.02 1021.04 1020.14 1019.34 1018.67 1018.12 1017.69 1017.35 1017.09 1016.89 1016.74 1016.61 1016.53 1016.47 1016.46 1016.50 1016.60 1016.76 1016.99 1017.29 1017.65 1018.05 1018.47 1018.90 1019.29 1019.63 1019.90 1020.08 1020.16 1020.15 1020.05 1019.88 1019.65 1019.38 1019.07 1018.74 1018.39
1027.20 1026.92 1026.36 1025.55 1024.53 1023.36 1022.12 1020.89 1019.74 1018.72 1017.87 1017.20 1016.72 1016.39 1016.20 1016.09 1016.04 1016.02 1016.01 1015.99 1015.98 1015.99 1016.02 1016.10 1016.25 1016.47 1016.76 1017.12 1017.54 1017.98 1018.43 1018.85 1019.22 1019.51 1019.72 1019.83 1019.85 1019.78 1019.64 1019.44 1019.19 1018.90 1018.58 1018.23
1027.46 1026.98 1026.21 1025.18 1023.95 1022.58 1021.16 1019.78 1018.52 1017.44 1016.57 1015.92 1015.50 1015.26 1015.17 1015.18 1015.25 1015.32 1015.39 1015.44 1015.47 1015.50 1015.54 1015.63 1015.78 1016.00 1016.29 1016.66 1017.08 1017.54 1018.00 1018.43 1018.81 1019.13 1019.35 1019.49 1019.54 1019.50 1019.39 1019.21 1018.98 1018.70 1018.38 1018.02
1027.37 1026.70 1025.75 1024.55 1023.17 1021.68 1020.17 1018.73 1017.44 1016.35 1015.50 1014.90 1014.54 1014.37 1014.36 1014.44 1014.58 1014.71 1014.83 1014.92 1014.98 1015.04 1015.10 1015.20 1015.36 1015.58 1015.89 1016.26 1016.68 1017.14 1017.60 1018.03 1018.42 1018.74 1018.98 1019.13 1019.20 1019.19 1019.10 1018.94 1018.73 1018.45 1018.13 1017.75
1026.80 1025.97 1024.88 1023.59 1022.14 1020.63 1019.12 1017.72 1016.48 1015.46 1014.68 1014.15 1013.85 1013.75 1013.78 1013.91 1014.07 1014.24 1014.38 1014.48 1014.56 1014.63 1014.71 1014.82 1014.99 1015.23 1015.54 1015.91 1016.33 1016.77 1017.22 1017.64 1018.02 1018.33 1018.58 1018.75 1018.83 1018.84 1018.78 1018.63 1018.43 1018.16 1017.82 1017.42
1025.69 1024.74 1023.57 1022.25 1020.84 1019.39 1017.99 1016.71 1015.61 1014.72 1014.07 1013.64 1013.42 1013.36 1013.43 1013.57 1013.74 1013.90 1014.03 1014.14 1014.22 1014.29 1014.38 1014.51 1014.69 1014.93 1015.23 1015.59 1015.99 1016.42 1016.84 1017.24 1017.61 1017.92 1018.16 1018.34 1018.44 1018.47 1018.42 1018.29 1018.09 1017.82 1017.47 1017.06
1024.06 1023.02 1021.84 1020.57 1019.26 1017.97 1016.76 1015.69 1014.79 1014.09 1013.59 1013.29 1013.15 1013.15 1013.23 1013.37 1013.52 1013.66 1013.77 1013.86 1013.94 1014.01 1014.10 1014.23 1014.41 1014.65 1014.94 1015.28 1015.66 1016.06 1016.45 1016.83 1017.18 1017.48 1017.73 1017.91 1018.03 1018.08 1018.04 1017.93 1017.74 1017.46 1017.11 1016.69
1022.02 1020.94 1019.78 1018.62 1017.47 1016.40 1015.44 1014.62 1013.97 1013.48 1013.17 1013.00 1012.95 1012.99 1013.09 1013.22 1013.34 1013.45 1013.54 1013.62 1013.68 1013.75 1013.84 1013.97 1014.15 1014.37 1014.65 1014.96 1015.31 1015.67 1016.04 1016.40 1016.73 1017.02 1017.28 1017.48 1017.62 1017.68 1017.67 1017.57 1017.39 1017.12 1016.76 1016.33
1019.78 1018.67 1017.59 1016.56 1015.61 1014.78 1014.09 1013.54 1013.14 1012.87 1012.73 1012.69 1012.72 1012.81 1012.91 1013.02 1013.13 1013.21 1013.28 1013.34 1013.39 1013.46 1013.56 1013.69 1013.86 1014.07 1014.32 1014.61 1014.92 1015.26 1015.60 1015.94 1016.26 1016.56 1016.83 1017.05 1017.21 1017.31 1017.32 1017.24 1017.07 1016.80 1016.46 1016.03
Thickness
5527 5524 5523 5529 5534 5537 5537 5540 5543 5547 5552 5554 5554 5559 5567 5569 5569 5570 5571 5572 5574 5576 5578 5579 5581 5582 5583 5585 5587 5590 5593 5595 5597 5600 5601 5603 5604 5606 5607 5609 5611 5613 5615 5616
5521 5521 5528 5533 5534 5534 5535 5535 5537 5542 5546 5549 5546 5552 5562 5565 5566 5567 5568 5568 5569 5569 5570 5572 5573 5573 5574 5575 5578 5581 5583 5585 5587 5589 5590 5592 5594 5596 5598 5599 5601 5603 5605 5606
5520 5522 5531 5532 5531 5531 5531 5531 5534 5536 5537 5538 5538 5550 5559 5563 5562 5563 5563 5564 5564 5564 5563 5564 5565 5565 5565 5566 5568 5572 5573 5576 5578 5580 5582 5583 5585 5586 5587 5589 5590 5592 5593 5594
5518 5524 5528 5528 5527 5530 5527 5531 5532 5532 5526 5522 5530 5533 5552 5555 5556 5559 5558 5557 5557 5557 5557 5556 5557 5558 5558 5559 5560 5562 5564 5567 5569 5571 5572 5573 5574 5574 5576 5576 5578 5581 5582 5583
5516 5521 5524 5524 5525 5528 5525 5527 5526 5524 5519 5514 5518 5519 5540 5546 5552 5557 5556 5554 5552 5551 5549 5549 5550 5551 5551 5551 5552 5554 5556 5558 5560 5561 5562 5562 5563 5563 5564 5565 5567 5569 5571 5572
5517 5520 5521 5522 5523 5524 5523 5519 5516 5510 5509 5513 5517 5513 5530 5538 5549 5554 5553 5550 5548 5545 5543 5543 5544 5544 5544 5544 5545 5546 5548 5549 5550 5551 5552 5552 5553 5553 5554 5555 5556 5558 5560 5562
5513 5517 5519 5521 5520 5519 5517 5508 5500 5505 5498 5509 5514 5511 5527 5546 5547 5548 5548 5546 5542 5539 5537 5537 5537 5537 5537 5537 5538 5539 5540 5541 5542 5543 5543 5544 5544 5544 5545 5546 5546 5547 5549 5551
5508 5507 5516 5517 5518 5515 5513 5509 5503 5507 5502 5503 5509 5510 5533 5545 5543 5541 5541 5539 5537 5534 5532 5532 5531 5531 5530 5531 5531 5532 5533 5533 5534 5534 5535 5535 5536 5536 5537 5538 5538 5538 5540 5541
5504 5507 5515 5517 5518 5517 5511 5503 5504 5493 5491 5494 5506 5513 5532 5542 5539 5537 5536 5535 5532 5529 5527 5527 5526 5525 5525 5524 5525 5525 5525 5526 5526 5526 5527 5527 5528 5529 5530 5530 5530 5531 5532 5533
5506 5503 5511 5513 5516 5513 5512 5503 5493 5493 5502 5506 5513 5515 5525 5539 5539 5536 5533 5529 5527 5525 5523 5522 5521 5520 5519 5519 5518 5518 5518 5518 5519 5519 5519 5521 5521 5522 5523 5523 5523 5524 5524 5525
5504 5500 5504 5509 5510 5509 5506 5503 5499 5491 5491 5495 5502 5523 5534 5534 5536 5531 5529 5526 5524 5522 5520 5518 5516 5515 5514 5512 5511 5511 5511 5512 5512 5513 5513 5513 5515 5515 5515 5516 5516 5517 5517 5517
5499 5493 5493 5503 5510 5511 5509 5505 5497 5497 5493 5482 5483 5515 5536 5530 5527 5526 5525 5524 5521 5519 5516 5514 5512 5510 5508 5507 5506 5505 5505 5505 5506 5506 5507 5508 5509 5509 5509 5509 5510 5510 5509 5510
5501 5494 5495 5507 5505 5505 5506 5505 5500 5495 5487 5477 5483 5518 5531 5525 5525 5523 5520 5518 5516 5515 5512 5510 5507 5506 5504 5502 5501 5500 5500 5500 5500 5501 5501 5502 5503 5503 5503 5503 5504 5504 5503 5503
5503 5492 5493 5504 5509 5506 5503 5504 5498 5493 5488 5485 5493 5513 5526 5524 5521 5520 5518 5515 5512 5510 5508 5506 5504 5503 5500 5499 5498 5496 5496 5495 5495 5495 5495 5496 5497 5497 5497 5498 5498 5498 5498 5498
5499 5492 5492 5494 5498 5498 5502 5505 5500 5498 5500 5498 5510 5507 5526 5523 5519 5517 5515 5512 5510 5509 5508 5505 5503 5500 5498 5496 5495 5493 5492 5492 5491 5490 5490 5491 5491 5492 5492 5493 5493 5493 5492 5492
5491 5491 5492 5496 5502 5498 5502 5507 5505 5504 5505 5505 5508 5515 5529 5522 5516 5513 5511 5509 5508 5508 5507 5505 5502 5499 5497 5494 5492 5491 5490 5489 5488 5487 5487 5487 5487 5487 5487 5487 5487 5487 5487 5487
5483 5485 5488 5490 5494 5502 5509 5519 5513 5508 5508 5507 5509 5522 5523 5518 5517 5514 5512 5510 5509 5508 5506 5504 5501 5498 5496 5493 5491 5489 5488 5486 5485 5484 5483 5483 5482 5482 5482 5482 5481 5481 5480 5480
5481 5480 5480 5482 5491 5504 5530 5529 5521 5516 5516 5513 5517 5520 5518 5517 5515 5513 5510 5509 5508 5507 5505 5503 5501 5498 5495 5492 5490 5487 5485 5483 5482 5481 5480 5478 5478 5477 5476 5475 5475 5474 5473 5472
5480 5482 5478 5477 5480 5500 5525 5526 5518 5514 5519 5521 5517 5519 5517 5513 5510 5512 5513 5510 5508 5506 5504 5502 5499 5497 5493 5490 5487 5484 5482 5480 5478 5477 5476 5474 5473 5471 5470 5469 5468 5467 5466 5465
5474 5474 5471 5472 5479 5497 5530 5526 5519 5518 5520 5526 5518 5515 5511 5508 5506 5513 5514 5509 5506 5504 5501 5499 5497 5494 5491 5488 5485 5481 5479 5477 5476 5474 5472 5470 5468 5466 5464 5463 5462 5461 5459 5458
5470 5467 5467 5468 5471 5495 5518 5516 5515 5514 5526 5526 5516 5513 5508 5503 5508 5511 5509 5505 5503 5501 5498 5496 5493 5490 5489 5486 5482 5478 5476 5474 5473 5471 5468 5465 5463 5461 5459 5457 5455 5453 5452 5450
5470 5466 5467 5466 5467 5495 5515 5507 5509 5518 5519 5518 5513 5509 5505 5503 5504 5503 5502 5500 5498 5496 5494 5492 5489 5487 5484 5481 5478 5475 5473 5472 5469 5466 5463 5460 5458 5456 5454 5450 5448 5446 5444 5441
5471 5479 5478 5482 5502 5512 5507 5509 5511 5508 5508 5509 5507 5505 5502 5499 5499 5498 5497 5496 5494 5491 5489 5487 5484 5482 5479 5476 5473 5471 5470 5467 5463 5460 5457 5454 5452 5449 5446 5443 5441 5438 5435 5433
5473 5473 5472 5476 5496 5502 5503 5502 5504 5503 5502 5503 5501 5499 5496 5494 5494 5493 5492 5490 5489 5487 5484 5482 5479 5476 5474 5471 5468 5467 5464 5461 5457 5454 5451 5448 5445 5442 5439 5436 5433 5430 5427 5424
5477 5467 5465 5474 5492 5496 5503 5502 5503 5502 5499 5496 5495 5494 5492 5490 5489 5489 5488 5486 5485 5483 5480 5476 5473 5471 5470 5466 5463 5461 5457 5454 5450 5447 5444 5441 5438 5434 5431 5428 5425 5422 5420 5417
5477 5475 5474 5494 5501 5495 5504 5505 5500 5497 5496 5494 5492 5492 5490 5486 5486 5485 5483 5481 5479 5477 5474 5470 5468 5466 5464 5460 5457 5454 5451 5447 5443 5440 5436 5433 5430 5426 5423 5420 5417 5416 5413 5411